Weather History for Caldwell, NJ

Change the Weather History Date:

Wednesday, September 11, 2013

  Actual Average Record
Temperature  
Mean Temperature 82 °F -  
Max Temperature 93 °F 77 °F 98 °F (1983)
Min Temperature 73 °F 52 °F 39 °F (1956)
Cooling Degree Days 17    
Growing Degree Days 32 (Base 50)    
Moisture  
Dew Point 72 °F    
Average Humidity 72    
Maximum Humidity 87    
Minimum Humidity 55    
Precipitation  
Precipitation 0.00 in - - ()
Sea Level Pressure  
Sea Level Pressure 30.07 in    
Wind  
Wind Speed 3 mph (SW)    
Max Wind Speed 7 mph    
Max Gust Speed -    
Visibility 6 miles    
Events      
Averages and records for this station are not official NWS values.
T = Trace of Precipitation, MM = Missing Value Source: NWS Daily Summary

Daily Weather History Graph

Daily Weather History Graph

Search for Another Location

Airport:

Trip Planner

Search our weather history database for the weather conditions in past years. The results will help you decide how hot, cold, wet, or windy it might be!

Date:

Astronomy

Sep. 11, 2013 Rise Set
Actual Time 6:34 AM EDT 7:12 PM EDT
Civil Twilight 6:06 AM EDT 7:40 PM EDT
Nautical Twilight 5:33 AM EDT 8:12 PM EDT
Astronomical Twilight 4:59 AM EDT 8:46 PM EDT
Moon 1:02 PM EDT (9/11) 11:03 PM EDT (9/11)
Length of Visible Light 13h 33m
Length of Day
12h 38m
Waxing Crescent, 38% of the Moon is Illuminated
Sep 11
Waxing Crescent
Sep 12
First Quarter
Sep 19
Full
Sep 26
Last Quarter
Oct 4
New

Hourly Weather History & Observations

Time (EDT) Temp. Heat Index Dew Point Humidity Pressure Visibility Wind Dir Wind Speed Gust Speed Precip Events Conditions
12:53 AM 77.0 °F - 71.1 °F 82% 30.12 in 6.0 mi SW 3.5 mph - N/A   Haze
1:53 AM 75.9 °F - 70.0 °F 82% 30.11 in 6.0 mi SSW 3.5 mph - N/A   Haze
2:53 AM 75.9 °F - 70.0 °F 82% 30.10 in 6.0 mi SSW 3.5 mph - N/A   Haze
3:53 AM 75.0 °F - 70.0 °F 84% 30.09 in 6.0 mi SW 3.5 mph - N/A   Haze
4:53 AM 73.9 °F - 70.0 °F 87% 30.09 in 5.0 mi Calm Calm - N/A   Clear
5:53 AM 73.9 °F - 70.0 °F 87% 30.10 in 5.0 mi Calm Calm - N/A   Clear
6:53 AM 73.9 °F - 70.0 °F 87% 30.12 in 3.0 mi SSW 3.5 mph - N/A   Clear
7:53 AM 75.0 °F - 71.1 °F 87% 30.14 in 4.0 mi Calm Calm - N/A   Clear
8:53 AM 78.1 °F - 71.1 °F 79% 30.14 in 5.0 mi SSW 3.5 mph - N/A   Haze
9:53 AM 81.0 °F 85.2 °F 72.0 °F 74% 30.14 in 5.0 mi Calm Calm - N/A   Haze
10:53 AM 84.9 °F 91.4 °F 73.0 °F 67% 30.12 in 6.0 mi South 3.5 mph - N/A   Haze
11:53 AM 88.0 °F 96.5 °F 73.9 °F 63% 30.11 in 6.0 mi WSW 4.6 mph - N/A   Haze
12:53 PM 90.0 °F 99.0 °F 73.9 °F 59% 30.09 in 7.0 mi SSW 3.5 mph - N/A   Clear
1:53 PM 91.9 °F 103.2 °F 75.0 °F 58% 30.06 in 7.0 mi SSW 6.9 mph - N/A   Clear
2:53 PM 91.9 °F 101.3 °F 73.9 °F 55% 30.04 in 7.0 mi Variable 6.9 mph - N/A   Partly Cloudy
3:53 PM 91.9 °F 101.3 °F 73.9 °F 55% 30.01 in 7.0 mi WSW 6.9 mph - N/A   Partly Cloudy
4:53 PM 91.0 °F 99.3 °F 73.0 °F 55% 30.00 in 7.0 mi Variable 3.5 mph - N/A   Scattered Clouds
5:53 PM 90.0 °F 97.9 °F 73.0 °F 57% 30.00 in 7.0 mi SW 4.6 mph - N/A   Clear
6:53 PM 88.0 °F 94.7 °F 72.0 °F 59% 30.02 in 7.0 mi WSW 3.5 mph - N/A   Clear
7:53 PM 84.9 °F 90.7 °F 72.0 °F 65% 30.03 in 8.0 mi SSW 3.5 mph - N/A   Clear
8:53 PM 84.0 °F 89.6 °F 72.0 °F 67% 30.03 in 8.0 mi Calm Calm - N/A   Clear
9:53 PM 82.0 °F 87.4 °F 73.0 °F 74% 30.04 in 7.0 mi Calm Calm - N/A   Scattered Clouds
10:53 PM 80.1 °F 83.6 °F 71.1 °F 74% 30.03 in 8.0 mi Calm Calm - N/A   Clear
11:53 PM 79.0 °F - 71.1 °F 77% 30.01 in 7.0 mi Calm Calm - N/A   Clear